Location: Strawberry
(45.6646°N, 111.9596°W)
Time: 22:00:54
(UTC+00:00)

Courier 1B - Pass Details

Date: 09 October 2022
Orbit: 962 x 1209 km, 28.3° (Epoch: 29 November)

Event Time Altitude Azimuth Distance (km) Brightness Sun altitude
Rises 20:24:13 0° 237° (WSW) 4,096 11.4 35.6°
Reaches altitude 10° 20:27:56 10° 222° (SW) 3,114 11.3 35.3°
Maximum altitude 20:33:15 20° 178° (S) 2,390 10.9 35.0°
Drops below altitude 10° 20:38:25 10° 134° (SE) 3,019 10.4 34.6°
Sets 20:41:57 0° 118° (ESE) 3,935 10.7 34.3°
